Погода в Вознесенском

Россия / Хабаровский край     50°07′54″N   136°56′04″E
темп.,
°C
ветер,
м/с
пор.,
м/с
влажн.,
%
обл.,
%
осадки,
мм/ч
давл.,
гПа
погр.,
м
27 февраля, сб
сб2701:00−19ююз3698100 0.1 1031145
04:00−20ю4898100 0.1 1032215
07:00−21ююз51097100 0.1 1033303
10:00−19ююз61193100 0.1 1031441
13:00−16ююз71189100 0.0 1029520
16:00−14ююз71287100 0.0 1026608
19:00−13ююз61289100 0.1 1024495
22:00−13ююз4990100 0.1 1021305
28 февраля, вс
вс2801:00−13ююз51088100 0.0 1017350
04:00−12юз61391100 0.3 1014524
07:00−12юз61590100 0.0 1013618
10:00−11юз61188100 0.1 1013478
13:00−8юз4784100 0.0 1012528
16:00−5зюз2478100 0.0 1012571
19:00−9юв2386100 0.1 101674
22:00−12в3480100 0.1 101968
1 марта, пн
пн101:00−15вюв4584100 0.0 1021116
04:00−17юв4688100 0.0 1023154
07:00−19ю259699 0.0 1024136
10:00−19ю369197 0.0 1025469
13:00−17ююз5785100 0.1 1024638
16:00−15ююз3584100 0.1 1024508
19:00−18ю1290100 0.0 102631
22:00−18юв1194100 0.1 102830
2 марта, вт
вт201:00−22ююз119687 0.0 102820
04:00−23ю229693 0.1 102942
07:00−25ю2294100 0.0 103036
10:00−23ю348862 0.0 1029264
13:00−19ююз347816 0.0 1028498
16:00−18ююз347826 0.0 1027400
19:00−22ююз129039 0.0 102820
22:00−22ю228468 0.0 103025
3 марта, ср
ср301:00−25ююз228733 0.0 102934
04:00−26ююз349621 0.0 102878
07:00−26ю359857 0.0 1028106
10:00−22ююз589377 0.0 1026373
13:00−17ююз61186100 0.0 1023530
16:00−14ююз71276100 0.0 1019624
19:00−16ююз4985100 0.0 1017229
22:00−16ю3688100 0.0 1015140